Valparaiso, IN

7:55 AM CST on December 14, 2017 (GMT -0600)
Porter County Municipal

Weather History for KVPZ - November, 2010

Change the Weather History Date:

Saturday, November 13, 2010

  Actual Average Record
Temperature  
Mean Temperature 49 °F 42 °F  
Max Temperature 59 °F 50 °F 71 °F (1999)
Min Temperature 39 °F 34 °F 15 °F (2013)
Degree Days  
Heating Degree Days 16 23  
Month to date heating degree days 264  
Since 1 July heating degree days 794  
Cooling Degree Days 0 0  
Month to date cooling degree days 0  
Year to date cooling degree days 713  
Moisture  
Dew Point 42 °F    
Average Humidity 79    
Maximum Humidity 100    
Minimum Humidity 51    
Precipitation  
Precipitation 0.15 in 0.12 in 0.28 in (2000)
Month to date precipitation 1.60  
Year to date precipitation 33.60  
Sea Level Pressure  
Sea Level Pressure 29.96 in    
Wind  
Wind Speed 9 mph (South)    
Max Wind Speed 22 mph    
Max Gust Speed 30 mph    
Visibility 8 miles    
Events Rain    
T = Trace of Precipitation, MM = Missing Value Source: NWS Daily Summary

Daily Weather History Graph

Daily Weather History Graph

Search for Another Location

Airport or City:

Trip Planner

Search our weather history database for the weather conditions in past years. The results will help you decide how hot, cold, wet, or windy it might be!

Date:

Astronomy

Nov. 13, 2010 Rise Set
Actual Time 6:34 AM CST 4:30 PM CST
Civil Twilight 6:04 AM CST 4:59 PM CST
Nautical Twilight 5:31 AM CST 5:32 PM CST
Astronomical Twilight 4:58 AM CST 6:05 PM CST
Moon 12:28 PM CST (11/13) 11:38 PM CST (11/13)
Length of Visible Light 10h 55m
Length of Day
9h 55m
Waxing Crescent, 51% of the Moon is Illuminated
Nov 13
Waxing Crescent
Nov 21
Full
Nov 28
Last Quarter
Dec 5
New
Dec 13
First Quarter

Hourly Weather History & Observations

Time (CST) Temp. Windchill Dew Point Humidity Pressure Visibility Wind Dir Wind Speed Gust Speed Precip Events Conditions
12:53 AM 46.9 °F - 37.0 °F 68% 30.14 in 10.0 mi East 4.6 mph - N/A   Overcast
1:53 AM 48.9 °F - 37.9 °F 66% 30.13 in 10.0 mi East 3.5 mph - N/A   Overcast
2:53 AM 46.9 °F - 39.0 °F 74% 30.10 in 10.0 mi ENE 5.8 mph - N/A   Overcast
3:53 AM 46.9 °F - 39.0 °F 74% 30.09 in 10.0 mi ENE 5.8 mph - N/A   Mostly Cloudy
4:53 AM 46.9 °F - 39.9 °F 77% 30.07 in 10.0 mi ENE 5.8 mph - 0.00 in Rain Light Rain
5:53 AM 48.9 °F - 39.9 °F 71% 30.04 in 10.0 mi East 5.8 mph - 0.00 in   Unknown
6:53 AM 50.0 °F - 39.0 °F 66% 30.03 in 10.0 mi ESE 4.6 mph - 0.00 in   Mostly Cloudy
7:53 AM 53.1 °F - 37.9 °F 57% 30.01 in 10.0 mi ESE 6.9 mph - N/A   Partly Cloudy
8:53 AM 55.9 °F - 39.0 °F 53% 29.98 in 10.0 mi SE 9.2 mph 17.3 mph N/A   Partly Cloudy
9:53 AM 57.9 °F - 39.9 °F 51% 29.96 in 10.0 mi SE 10.4 mph 18.4 mph N/A   Scattered Clouds
10:53 AM 59.0 °F - 43.0 °F 55% 29.94 in 10.0 mi SSE 12.7 mph - 0.00 in   Overcast
11:21 AM 57.2 °F - 42.8 °F 59% 29.92 in 10.0 mi South 11.5 mph - 0.00 in Rain Light Rain
12:09 PM 51.8 °F - 50.0 °F 94% 29.91 in 2.5 mi SSW 11.5 mph - 0.05 in Rain Light Rain
12:24 PM 51.8 °F - 50.0 °F 94% 29.91 in 4.0 mi South 10.4 mph - 0.07 in Rain Light Rain
12:39 PM 51.8 °F - 50.0 °F 94% 29.90 in 1.8 mi South 9.2 mph - 0.07 in Rain Light Rain
12:50 PM 51.8 °F - 51.8 °F 100% 29.90 in 1.5 mi South 10.4 mph - 0.13 in Rain Rain
12:53 PM 52.0 °F - 51.1 °F 97% 29.91 in 1.5 mi South 11.5 mph 19.6 mph 0.13 in Rain Rain
1:00 PM 51.8 °F - 51.8 °F 100% 29.90 in 2.0 mi South 12.7 mph 19.6 mph 0.01 in Rain Rain
1:13 PM 51.8 °F - 51.8 °F 100% 29.89 in 3.0 mi South 13.8 mph - 0.01 in Rain Light Rain
1:53 PM 53.1 °F - 51.1 °F 93% 29.88 in 6.0 mi SSW 15.0 mph 23.0 mph 0.01 in   Overcast
2:53 PM 53.1 °F - 51.1 °F 93% 29.88 in 3.0 mi SSW 18.4 mph 26.5 mph N/A   Overcast
3:53 PM 48.0 °F - 46.0 °F 93% 29.90 in 9.0 mi WSW 21.9 mph 27.6 mph N/A   Overcast
4:15 PM 46.4 °F 39.8 °F 44.6 °F 93% 29.90 in 8.0 mi SW 16.1 mph 28.8 mph N/A   Overcast
4:53 PM 45.0 °F 37.4 °F 39.9 °F 82% 29.92 in 10.0 mi SW 18.4 mph - N/A   Overcast
5:53 PM 44.1 °F 37.4 °F 37.9 °F 79% 29.94 in 10.0 mi SW 13.8 mph - N/A   Overcast
6:53 PM 42.1 °F 33.9 °F 36.0 °F 79% 29.94 in 10.0 mi SW 17.3 mph 23.0 mph N/A   Overcast
7:53 PM 42.1 °F 33.6 °F 36.0 °F 79% 29.94 in 10.0 mi SW 18.4 mph 25.3 mph N/A   Overcast
8:53 PM 41.0 °F 31.9 °F 34.0 °F 76% 29.94 in 10.0 mi SW 19.6 mph 29.9 mph 0.01 in   Overcast
10:32 PM 39.2 °F 30.5 °F 33.8 °F 81% 29.92 in 10.0 mi SW 16.1 mph - N/A   Overcast
10:53 PM 39.9 °F 32.5 °F 33.1 °F 77% 29.93 in 10.0 mi WSW 12.7 mph 20.7 mph N/A   Overcast
11:53 PM 39.0 °F 30.6 °F 32.0 °F 76% 29.94 in 10.0 mi WSW 15.0 mph - N/A   Overcast